Pittsburg, KS

3:53 PM CST on February 21, 2017 (GMT -0600)
Atkinson Municipal

Weather History for KPTS - December, 2012

Change the Weather History Date:

Tuesday, December 25, 2012

  Actual Average (KJLN) Record (KJLN)
Temperature  
Mean Temperature 24 °F -  
Max Temperature 29 °F 39 °F 72 °F (2016)
Min Temperature 20 °F 21 °F -11 °F (1983)
Degree Days  
Heating Degree Days 40    
Moisture  
Dew Point 18 °F    
Average Humidity 76    
Maximum Humidity 82    
Minimum Humidity 63    
Precipitation  
Precipitation 0.00 in - - ()
Sea Level Pressure  
Sea Level Pressure 30.08 in    
Wind  
Wind Speed 15 mph (NE)    
Max Wind Speed 24 mph    
Max Gust Speed 32 mph    
Visibility 9 miles    
Events      
Averages and records for this station are not official NWS values.
T = Trace of Precipitation, MM = Missing Value Source: NWS Daily Summary

Daily Weather History Graph

Daily Weather History Graph

Search for Another Location

Airport or City:

Trip Planner

Search our weather history database for the weather conditions in past years. The results will help you decide how hot, cold, wet, or windy it might be!

Date:

Astronomy

Dec. 25, 2012 Rise Set
Actual Time 7:31 AM CST 5:07 PM CST
Civil Twilight 7:02 AM CST 5:36 PM CST
Nautical Twilight 6:29 AM CST 6:09 PM CST
Astronomical Twilight 5:57 AM CST 6:40 PM CST
Moon 3:14 PM CST (12/25) 5:05 AM CST (12/25)
Length of Visible Light 10h 33m
Length of Day
9h 35m
Waxing Gibbous, 94% of the Moon is Illuminated
Dec 25
Waxing Gibbous
Dec 28
Full
Jan 4
Last Quarter
Jan 11
New
Jan 18
First Quarter

Hourly Weather History & Observations

Time (CST) Temp. Windchill Dew Point Humidity Pressure Visibility Wind Dir Wind Speed Gust Speed Precip Events Conditions
12:15 AM 21.9 °F 10.4 °F 16.3 °F 79% 30.04 in 10.0 mi ENE 11.5 mph 21.9 mph N/A   Scattered Clouds
12:35 AM 22.1 °F 10.0 °F 16.5 °F 79% 30.04 in 10.0 mi ENE 12.7 mph 18.4 mph N/A   Scattered Clouds
12:55 AM 22.1 °F 11.3 °F 16.5 °F 79% 30.04 in 10.0 mi ENE 10.4 mph 19.6 mph N/A   Clear
1:15 AM 22.6 °F 10.1 °F 16.5 °F 77% 30.06 in 10.0 mi ENE 13.8 mph 19.6 mph N/A   Clear
1:35 AM 22.8 °F 11.5 °F 16.3 °F 76% 30.05 in 10.0 mi NE 11.5 mph 17.3 mph N/A   Clear
1:55 AM 23.0 °F 9.6 °F 16.3 °F 76% 30.06 in 10.0 mi ENE 16.1 mph 20.7 mph N/A   Clear
2:15 AM 23.0 °F 12.4 °F 16.0 °F 74% 30.08 in 10.0 mi ENE 10.4 mph 17.3 mph N/A   Clear
2:35 AM 23.0 °F 11.1 °F 15.8 °F 74% 30.08 in 10.0 mi ENE 12.7 mph - N/A   Clear
2:55 AM 23.0 °F 11.7 °F 15.6 °F 73% 30.07 in 10.0 mi ENE 11.5 mph 19.6 mph N/A   Clear
3:15 AM 23.0 °F 12.4 °F 15.4 °F 73% 30.07 in 10.0 mi NE 10.4 mph 18.4 mph N/A   Clear
3:35 AM 23.0 °F 13.9 °F 15.4 °F 73% 30.08 in 10.0 mi ENE 8.1 mph 18.4 mph N/A   Clear
3:55 AM 23.0 °F 10.6 °F 15.6 °F 73% 30.07 in 10.0 mi NE 13.8 mph 20.7 mph N/A   Clear
4:15 AM 23.0 °F 11.1 °F 15.8 °F 74% 30.07 in 10.0 mi NE 12.7 mph 20.7 mph N/A   Clear
4:35 AM 23.0 °F 10.6 °F 15.8 °F 74% 30.07 in 10.0 mi NE 13.8 mph - N/A   Clear
4:55 AM 22.5 °F 11.1 °F 15.4 °F 74% 30.07 in 10.0 mi NE 11.5 mph 17.3 mph N/A   Clear
5:15 AM 21.9 °F 8.2 °F 15.1 °F 75% 30.05 in 10.0 mi NE 16.1 mph 19.6 mph N/A   Clear
5:35 AM 21.9 °F 9.8 °F 15.4 °F 76% 30.06 in 10.0 mi NE 12.7 mph 17.3 mph N/A   Clear
5:55 AM 21.9 °F 11.0 °F 15.8 °F 77% 30.07 in 10.0 mi NE 10.4 mph 21.9 mph N/A   Clear
6:15 AM 21.9 °F 9.8 °F 16.0 °F 78% 30.07 in 10.0 mi NE 12.7 mph 21.9 mph N/A   Clear
6:35 AM 22.1 °F 9.5 °F 16.3 °F 79% 30.09 in 10.0 mi NE 13.8 mph 20.7 mph N/A   Clear
6:55 AM 22.8 °F 9.4 °F 17.2 °F 79% 30.10 in 10.0 mi NE 16.1 mph 23.0 mph N/A   Clear
7:15 AM 23.0 °F 9.6 °F 17.6 °F 80% 30.11 in 10.0 mi NE 16.1 mph - N/A   Scattered Clouds
7:35 AM 23.0 °F 10.1 °F 17.6 °F 80% 30.11 in 10.0 mi NE 15.0 mph 24.2 mph N/A   Scattered Clouds
7:55 AM 23.0 °F 10.6 °F 17.6 °F 80% 30.11 in 7.0 mi NE 13.8 mph 21.9 mph N/A   Mostly Cloudy
8:15 AM 23.0 °F 9.2 °F 18.0 °F 81% 30.11 in 7.0 mi NE 17.3 mph 25.3 mph N/A   Mostly Cloudy
8:35 AM 23.4 °F 7.4 °F 18.1 °F 80% 30.11 in 7.0 mi NE 24.2 mph 28.8 mph N/A   Mostly Cloudy
8:55 AM 23.9 °F 9.9 °F 18.7 °F 80% 30.09 in 7.0 mi NE 18.4 mph 25.3 mph N/A   Mostly Cloudy
9:15 AM 24.3 °F 9.6 °F 19.2 °F 81% 30.09 in 7.0 mi NE 20.7 mph 28.8 mph N/A   Mostly Cloudy
9:35 AM 25.7 °F 14.0 °F 20.5 °F 81% 30.10 in 7.0 mi NE 13.8 mph 26.5 mph N/A   Mostly Cloudy
9:55 AM 25.7 °F 13.1 °F 20.5 °F 81% 30.08 in 7.0 mi ENE 16.1 mph 26.5 mph N/A   Overcast
10:15 AM 25.7 °F 11.2 °F 20.7 °F 81% 30.06 in 7.0 mi NE 21.9 mph 29.9 mph N/A   Overcast
10:35 AM 26.4 °F 12.5 °F 21.6 °F 82% 30.07 in 7.0 mi NE 20.7 mph 29.9 mph N/A   Overcast
10:55 AM 27.9 °F 15.1 °F 22.6 °F 81% 30.04 in 7.0 mi NE 18.4 mph 29.9 mph N/A   Overcast
11:15 AM 28.2 °F 14.5 °F 22.8 °F 80% 30.05 in 7.0 mi NE 21.9 mph 31.1 mph N/A   Overcast
11:35 AM 28.2 °F 14.5 °F 22.6 °F 80% 30.06 in 7.0 mi NE 21.9 mph 28.8 mph N/A   Overcast
11:55 AM 28.2 °F 15.9 °F 22.8 °F 80% 30.07 in 7.0 mi ENE 17.3 mph 25.3 mph N/A   Overcast
12:15 PM 28.2 °F 17.2 °F 23.0 °F 81% 30.07 in 7.0 mi NE 13.8 mph 24.2 mph N/A   Overcast
12:35 PM 28.2 °F 15.9 °F 23.0 °F 81% 30.07 in 7.0 mi NE 17.3 mph 24.2 mph N/A   Overcast
12:55 PM 28.2 °F 15.9 °F 22.8 °F 80% 30.05 in 7.0 mi NE 17.3 mph 28.8 mph N/A   Overcast
1:15 PM 28.2 °F 16.3 °F 22.5 °F 79% 30.04 in 7.0 mi NE 16.1 mph 26.5 mph N/A   Overcast
1:35 PM 29.3 °F 18.2 °F 23.2 °F 78% 30.04 in 7.0 mi NE 15.0 mph 28.8 mph N/A   Mostly Cloudy
1:55 PM 28.6 °F 16.0 °F 22.3 °F 77% 30.05 in 7.0 mi NNE 18.4 mph 26.5 mph N/A   Mostly Cloudy
2:15 PM 27.5 °F 15.0 °F 21.9 °F 80% 30.07 in 7.0 mi NNE 17.3 mph 21.9 mph N/A   Overcast
2:35 PM 26.1 °F 14.0 °F 21.0 °F 81% 30.09 in 7.0 mi NE 15.0 mph 23.0 mph N/A   Overcast
2:55 PM 25.7 °F 14.6 °F 20.7 °F 81% 30.09 in 7.0 mi NNE 12.7 mph 24.2 mph N/A   Overcast
3:15 PM 25.7 °F 12.3 °F 20.3 °F 80% 30.10 in 7.0 mi NNE 18.4 mph 23.0 mph N/A   Mostly Cloudy
3:35 PM 25.7 °F 11.9 °F 19.9 °F 79% 30.10 in 7.0 mi NNE 19.6 mph 25.3 mph N/A   Mostly Cloudy
3:55 PM 25.7 °F 11.2 °F 19.6 °F 78% 30.11 in 10.0 mi NNE 21.9 mph 32.2 mph N/A   Mostly Cloudy
4:15 PM 25.7 °F 11.2 °F 19.4 °F 77% 30.11 in 10.0 mi NNE 21.9 mph 29.9 mph N/A   Overcast
4:35 PM 25.7 °F 14.0 °F 19.4 °F 77% 30.11 in 10.0 mi NNE 13.8 mph 23.0 mph N/A   Overcast
4:55 PM 25.7 °F 10.8 °F 19.4 °F 77% 30.10 in 10.0 mi NNE 23.0 mph 28.8 mph N/A   Overcast
5:15 PM 25.7 °F 11.5 °F 19.0 °F 76% 30.09 in 10.0 mi NNE 20.7 mph 29.9 mph N/A   Overcast
5:35 PM 25.7 °F 11.5 °F 18.9 °F 75% 30.09 in 10.0 mi NNE 20.7 mph 29.9 mph N/A   Overcast
5:55 PM 25.7 °F 12.3 °F 18.7 °F 75% 30.09 in 10.0 mi NNE 18.4 mph 27.6 mph N/A   Overcast
6:15 PM 25.7 °F 11.2 °F 18.5 °F 74% 30.09 in 10.0 mi NNE 21.9 mph 32.2 mph N/A   Overcast
6:35 PM 25.7 °F 11.9 °F 18.3 °F 74% 30.08 in 10.0 mi NNE 19.6 mph 31.1 mph N/A   Overcast
6:55 PM 25.7 °F 12.7 °F 18.0 °F 73% 30.09 in 10.0 mi NNE 17.3 mph 25.3 mph N/A   Mostly Cloudy
7:15 PM 25.5 °F 11.3 °F 17.4 °F 71% 30.09 in 10.0 mi NNE 20.7 mph 31.1 mph N/A   Mostly Cloudy
7:35 PM 24.6 °F 10.1 °F 16.2 °F 70% 30.10 in 10.0 mi NNE 20.7 mph 26.5 mph N/A   Scattered Clouds
7:55 PM 25.2 °F 12.0 °F 16.3 °F 69% 30.10 in 10.0 mi NNE 17.3 mph 25.3 mph N/A   Scattered Clouds
8:15 PM 24.8 °F 12.4 °F 15.8 °F 69% 30.11 in 10.0 mi NNE 15.0 mph 26.5 mph N/A   Scattered Clouds
8:35 PM 24.8 °F 10.3 °F 15.4 °F 68% 30.11 in 10.0 mi NNE 20.7 mph 27.6 mph N/A   Mostly Cloudy
8:55 PM 25.3 °F 13.6 °F 15.6 °F 67% 30.11 in 10.0 mi NNE 13.8 mph 23.0 mph N/A   Overcast
9:15 PM 25.2 °F 12.4 °F 15.1 °F 66% 30.12 in 10.0 mi NE 16.1 mph 27.6 mph N/A   Overcast
10:15 PM 23.0 °F 9.6 °F 12.4 °F 64% 30.12 in 10.0 mi North 16.1 mph 24.2 mph N/A   Overcast
10:55 PM 22.3 °F 10.2 °F 11.5 °F 63% 30.13 in 10.0 mi North 12.7 mph 18.4 mph N/A   Overcast
11:15 PM 21.7 °F 9.6 °F 11.1 °F 64% 30.13 in 10.0 mi North 12.7 mph 23.0 mph N/A   Mostly Cloudy
11:35 PM 20.8 °F 7.3 °F 10.8 °F 65% 30.14 in 10.0 mi North 15.0 mph 23.0 mph N/A   Scattered Clouds
11:55 PM 20.7 °F 7.1 °F 10.9 °F 66% 30.13 in 10.0 mi NNE 15.0 mph 21.9 mph N/A   Mostly Cloudy